#Datum;Uhrzeit;WR;Pac;DaySum;Status;WR;Pac;DaySum;Status;Pdc1;Udc;Temp;WR;Pac;DaySum;Status;Pdc1;Udc;Temp;WR;Pac;DaySum;Status;Pdc1;Udc;Temp;WR;Pac;DaySum;Status;Pdc1;Pdc2;Udc1;Udc2;Temp;WR;Pac;DaySum;Status;Pdc1;Pdc2;Udc1;Udc2;Temp;WR;Pac;DaySum;Status;Pdc1;Udc;Temp;WR;Pac;DaySum;Status;Pdc1;Udc;Temp;WR;Pac;DaySum;Status;Pdc1;Udc;Temp
29.10.18;23:55:00;1;401;15904;0;2;0;10014;0;0;0;0;3;0;6285;0;0;0;0;4;0;8726;0;0;0;0;5;0;21566;0;0;0;0;0;0;6;0;16352;0;0;0;0;0;0;7;0;13469;0;0;0;0;8;0;13268;0;0;0;0;9;0;6988;0;0;0;0
29.10.18;23:50:00;1;406;15870;0;2;0;10014;0;0;0;0;3;0;6285;0;0;0;0;4;0;8726;0;0;0;0;5;0;21566;0;0;0;0;0;0;6;0;16352;0;0;0;0;0;0;7;0;13469;0;0;0;0;8;0;13268;0;0;0;0;9;0;6988;0;0;0;0
29.10.18;23:45:00;1;379;15836;0;2;0;10014;0;0;0;0;3;0;6285;0;0;0;0;4;0;8726;0;0;0;0;5;0;21566;0;0;0;0;0;0;6;0;16352;0;0;0;0;0;0;7;0;13469;0;0;0;0;8;0;13268;0;0;0;0;9;0;6988;0;0;0;0
29.10.18;23:40:00;1;361;15805;0;2;0;10014;0;0;0;0;3;0;6285;0;0;0;0;4;0;8726;0;0;0;0;5;0;21566;0;0;0;0;0;0;6;0;16352;0;0;0;0;0;0;7;0;13469;0;0;0;0;8;0;13268;0;0;0;0;9;0;6988;0;0;0;0
29.10.18;23:35:00;1;368;15774;0;2;0;10014;0;0;0;0;3;0;6285;0;0;0;0;4;0;8726;0;0;0;0;5;0;21566;0;0;0;0;0;0;6;0;16352;0;0;0;0;0;0;7;0;13469;0;0;0;0;8;0;13268;0;0;0;0;9;0;6988;0;0;0;0
29.10.18;23:30:00;1;360;15744;0;2;0;10014;0;0;0;0;3;0;6285;0;0;0;0;4;0;8726;0;0;0;0;5;0;21566;0;0;0;0;0;0;6;0;16352;0;0;0;0;0;0;7;0;13469;0;0;0;0;8;0;13268;0;0;0;0;9;0;6988;0;0;0;0
29.10.18;23:25:00;1;353;15714;0;2;0;10014;0;0;0;0;3;0;6285;0;0;0;0;4;0;8726;0;0;0;0;5;0;21566;0;0;0;0;0;0;6;0;16352;0;0;0;0;0;0;7;0;13469;0;0;0;0;8;0;13268;0;0;0;0;9;0;6988;0;0;0;0
29.10.18;23:20:00;1;296;15686;0;2;0;10014;0;0;0;0;3;0;6285;0;0;0;0;4;0;8726;0;0;0;0;5;0;21566;0;0;0;0;0;0;6;0;16352;0;0;0;0;0;0;7;0;13469;0;0;0;0;8;0;13268;0;0;0;0;9;0;6988;0;0;0;0
29.10.18;23:15:00;1;297;15661;0;2;0;10014;0;0;0;0;3;0;6285;0;0;0;0;4;0;8726;0;0;0;0;5;0;21566;0;0;0;0;0;0;6;0;16352;0;0;0;0;0;0;7;0;13469;0;0;0;0;8;0;13268;0;0;0;0;9;0;6988;0;0;0;0
29.10.18;23:10:00;1;341;15636;0;2;0;10014;0;0;0;0;3;0;6285;0;0;0;0;4;0;8726;0;0;0;0;5;0;21566;0;0;0;0;0;0;6;0;16352;0;0;0;0;0;0;7;0;13469;0;0;0;0;8;0;13268;0;0;0;0;9;0;6988;0;0;0;0
29.10.18;23:05:00;1;377;15607;0;2;0;10014;0;0;0;0;3;0;6285;0;0;0;0;4;0;8726;0;0;0;0;5;0;21566;0;0;0;0;0;0;6;0;16352;0;0;0;0;0;0;7;0;13469;0;0;0;0;8;0;13268;0;0;0;0;9;0;6988;0;0;0;0
29.10.18;23:00:00;1;376;15576;0;2;0;10014;0;0;0;0;3;0;6285;0;0;0;0;4;0;8726;0;0;0;0;5;0;21566;0;0;0;0;0;0;6;0;16352;0;0;0;0;0;0;7;0;13469;0;0;0;0;8;0;13268;0;0;0;0;9;0;6988;0;0;0;0
29.10.18;22:55:00;1;383;15544;0;2;0;10014;0;0;0;0;3;0;6285;0;0;0;0;4;0;8726;0;0;0;0;5;0;21566;2;0;0;0;0;0;6;0;16352;2;0;0;0;0;0;7;0;13469;0;0;0;0;8;0;13268;0;0;0;0;9;0;6988;0;0;0;0
29.10.18;22:50:00;1;371;15512;0;2;0;10014;0;0;0;0;3;0;6285;0;0;0;0;4;0;8726;0;0;0;0;5;0;21566;2;0;0;0;0;0;6;0;16352;2;0;0;0;0;0;7;0;13469;0;0;0;0;8;0;13268;0;0;0;0;9;0;6988;0;0;0;0
29.10.18;22:45:00;1;373;15481;0;2;0;10014;0;0;0;0;3;0;6285;0;0;0;0;4;0;8726;0;0;0;0;5;0;21566;2;0;0;0;0;0;6;0;16352;2;0;0;0;0;0;7;0;13469;0;0;0;0;8;0;13268;0;0;0;0;9;0;6988;0;0;0;0
29.10.18;22:40:00;1;377;15450;0;2;0;10014;0;0;0;0;3;0;6285;0;0;0;0;4;0;8726;0;0;0;0;5;0;21566;2;0;0;0;0;0;6;0;16352;2;0;0;0;0;0;7;0;13469;0;0;0;0;8;0;13268;0;0;0;0;9;0;6988;0;0;0;0
29.10.18;22:35:00;1;377;15418;0;2;0;10014;0;0;0;0;3;0;6285;0;0;0;0;4;0;8726;0;0;0;0;5;0;21566;2;0;0;0;0;0;6;0;16352;2;0;0;0;0;0;7;0;13469;0;0;0;0;8;0;13268;0;0;0;0;9;0;6988;0;0;0;0
29.10.18;22:30:00;1;377;15387;0;2;0;10014;0;0;0;0;3;0;6285;0;0;0;0;4;0;8726;0;0;0;0;5;0;21566;2;0;0;0;0;0;6;0;16352;2;0;0;0;0;0;7;0;13469;0;0;0;0;8;0;13268;0;0;0;0;9;0;6988;0;0;0;0
29.10.18;22:25:00;1;426;15355;0;2;0;10014;0;0;0;0;3;0;6285;0;0;0;0;4;0;8726;0;0;0;0;5;0;21566;2;0;0;0;0;0;6;0;16352;2;0;0;0;0;0;7;0;13469;0;0;0;0;8;0;13268;0;0;0;0;9;0;6988;0;0;0;0
29.10.18;22:20:00;1;368;15320;0;2;0;10014;0;0;0;0;3;0;6285;0;0;0;0;4;0;8726;0;0;0;0;5;0;21566;2;0;0;0;0;0;6;0;16352;2;0;0;0;0;0;7;0;13469;0;0;0;0;8;0;13268;0;0;0;0;9;0;6988;0;0;0;0
29.10.18;22:15:00;1;559;15287;0;2;0;10014;0;0;0;0;3;0;6285;0;0;0;0;4;0;8726;0;0;0;0;5;0;21566;2;0;0;0;0;0;6;0;16352;2;0;0;0;0;0;7;0;13469;0;0;0;0;8;0;13268;0;0;0;0;9;0;6988;0;0;0;0
29.10.18;22:10:00;1;573;15240;0;2;0;10014;0;0;0;0;3;0;6285;0;0;0;0;4;0;8726;0;0;0;0;5;0;21566;2;0;0;0;0;0;6;0;16352;2;0;0;0;0;0;7;0;13469;0;0;0;0;8;0;13268;0;0;0;0;9;0;6988;0;0;0;0
29.10.18;22:05:00;1;539;15193;0;2;0;10014;0;0;0;0;3;0;6285;0;0;0;0;4;0;8726;0;0;0;0;5;0;21566;2;0;0;0;0;0;6;0;16352;2;0;0;0;0;0;7;0;13469;0;0;0;0;8;0;13268;0;0;0;0;9;0;6988;0;0;0;0
29.10.18;22:00:00;1;518;15148;0;2;0;10014;0;0;0;0;3;0;6285;0;0;0;0;4;0;8726;0;0;0;0;5;0;21566;2;0;0;0;0;0;6;0;16352;2;0;0;0;0;0;7;0;13469;0;0;0;0;8;0;13268;0;0;0;0;9;0;6988;0;0;0;0
29.10.18;21:55:00;1;520;15105;0;2;0;10014;0;0;0;0;3;0;6285;0;0;0;0;4;0;8726;0;0;0;0;5;0;21566;2;0;0;0;0;0;6;0;16352;2;0;0;0;0;0;7;0;13469;0;0;0;0;8;0;13268;0;0;0;0;9;0;6988;0;0;0;0
29.10.18;21:50:00;1;522;15061;0;2;0;10014;0;0;0;0;3;0;6285;0;0;0;0;4;0;8726;0;0;0;0;5;0;21566;2;0;0;0;0;0;6;0;16352;2;0;0;0;0;0;7;0;13469;0;0;0;0;8;0;13268;0;0;0;0;9;0;6988;0;0;0;0
29.10.18;21:45:00;1;521;15018;0;2;0;10014;0;0;0;0;3;0;6285;0;0;0;0;4;0;8726;0;0;0;0;5;0;21566;2;0;0;0;0;0;6;0;16352;2;0;0;0;0;0;7;0;13469;0;0;0;0;8;0;13268;0;0;0;0;9;0;6988;0;0;0;0
29.10.18;21:40:00;1;521;14974;0;2;0;10014;0;0;0;0;3;0;6285;0;0;0;0;4;0;8726;0;0;0;0;5;0;21566;2;0;0;0;0;0;6;0;16352;2;0;0;0;0;0;7;0;13469;0;0;0;0;8;0;13268;0;0;0;0;9;0;6988;0;0;0;0
29.10.18;21:35:00;1;522;14931;0;2;0;10014;0;0;0;0;3;0;6285;0;0;0;0;4;0;8726;0;0;0;0;5;0;21566;2;0;0;0;0;0;6;0;16352;2;0;0;0;0;0;7;0;13469;0;0;0;0;8;0;13268;0;0;0;0;9;0;6988;0;0;0;0
29.10.18;21:30:00;1;488;14888;0;2;0;10014;0;0;0;0;3;0;6285;0;0;0;0;4;0;8726;0;0;0;0;5;0;21566;2;0;0;0;0;0;6;0;16352;2;0;0;0;0;0;7;0;13469;0;0;0;0;8;0;13268;0;0;0;0;9;0;6988;0;0;0;0
29.10.18;21:25:00;1;499;14847;0;2;0;10014;0;0;0;0;3;0;6285;0;0;0;0;4;0;8726;0;0;0;0;5;0;21566;2;0;0;0;0;0;6;0;16352;2;0;0;0;0;0;7;0;13469;0;0;0;0;8;0;13268;0;0;0;0;9;0;6988;0;0;0;0
29.10.18;21:20:00;1;501;14805;0;2;0;10014;0;0;0;0;3;0;6285;0;0;0;0;4;0;8726;0;0;0;0;5;0;21566;2;0;0;0;0;0;6;0;16352;2;0;0;0;0;0;7;0;13469;0;0;0;0;8;0;13268;0;0;0;0;9;0;6988;0;0;0;0
29.10.18;21:15:00;1;401;14763;0;2;0;10014;0;0;0;0;3;0;6285;0;0;0;0;4;0;8726;0;0;0;0;5;0;21566;2;0;0;0;0;0;6;0;16352;2;0;0;0;0;0;7;0;13469;0;0;0;0;8;0;13268;0;0;0;0;9;0;6988;0;0;0;0
29.10.18;21:10:00;1;373;14729;0;2;0;10014;0;0;0;0;3;0;6285;0;0;0;0;4;0;8726;0;0;0;0;5;0;21566;2;0;0;0;0;0;6;0;16352;2;0;0;0;0;0;7;0;13469;0;0;0;0;8;0;13268;0;0;0;0;9;0;6988;0;0;0;0
29.10.18;21:05:00;1;374;14698;0;2;0;10014;0;0;0;0;3;0;6285;0;0;0;0;4;0;8726;0;0;0;0;5;0;21566;2;0;0;0;0;0;6;0;16352;2;0;0;0;0;0;7;0;13469;0;0;0;0;8;0;13268;0;0;0;0;9;0;6988;0;0;0;0
29.10.18;21:00:00;1;375;14667;0;2;0;10014;0;0;0;0;3;0;6285;0;0;0;0;4;0;8726;0;0;0;0;5;0;21566;2;0;0;0;0;0;6;0;16352;2;0;0;0;0;0;7;0;13469;0;0;0;0;8;0;13268;0;0;0;0;9;0;6988;0;0;0;0
29.10.18;20:55:00;1;379;14635;0;2;0;10014;0;0;0;0;3;0;6285;0;0;0;0;4;0;8726;0;0;0;0;5;0;21566;2;0;0;0;0;0;6;0;16352;2;0;0;0;0;0;7;0;13469;0;0;0;0;8;0;13268;0;0;0;0;9;0;6988;0;0;0;0
29.10.18;20:50:00;1;649;14604;0;2;0;10014;0;0;0;0;3;0;6285;0;0;0;0;4;0;8726;0;0;0;0;5;0;21566;2;0;0;0;0;0;6;0;16352;2;0;0;0;0;0;7;0;13469;0;0;0;0;8;0;13268;0;0;0;0;9;0;6988;0;0;0;0
29.10.18;20:45:00;1;490;14538;0;2;0;10014;0;0;0;0;3;0;6285;0;0;0;0;4;0;8726;0;0;0;0;5;0;21566;2;0;0;0;0;0;6;0;16352;2;0;0;0;0;0;7;0;13469;0;0;0;0;8;0;13268;0;0;0;0;9;0;6988;0;0;0;0
29.10.18;20:40:00;1;588;14496;0;2;0;10014;0;0;0;0;3;0;6285;0;0;0;0;4;0;8726;0;0;0;0;5;0;21566;2;0;0;0;0;0;6;0;16352;2;0;0;0;0;0;7;0;13469;0;0;0;0;8;0;13268;0;0;0;0;9;0;6988;0;0;0;0
29.10.18;20:35:00;1;674;14446;0;2;0;10014;0;0;0;0;3;0;6285;0;0;0;0;4;0;8726;0;0;0;0;5;0;21566;2;0;0;0;0;0;6;0;16352;2;0;0;0;0;0;7;0;13469;0;0;0;0;8;0;13268;0;0;0;0;9;0;6988;0;0;0;0
29.10.18;20:30:00;1;692;14390;0;2;0;10014;0;0;0;0;3;0;6285;0;0;0;0;4;0;8726;0;0;0;0;5;0;21566;2;0;0;0;0;0;6;0;16352;2;0;0;0;0;0;7;0;13469;0;0;0;0;8;0;13268;0;0;0;0;9;0;6988;0;0;0;0
29.10.18;20:25:00;1;666;14332;0;2;0;10014;0;0;0;0;3;0;6285;0;0;0;0;4;0;8726;0;0;0;0;5;0;21566;2;0;0;0;0;0;6;0;16352;2;0;0;0;0;0;7;0;13469;0;0;0;0;8;0;13268;0;0;0;0;9;0;6988;0;0;0;0
29.10.18;20:20:00;1;546;14277;0;2;0;10014;0;0;0;0;3;0;6285;0;0;0;0;4;0;8726;0;0;0;0;5;0;21566;2;0;0;0;0;0;6;0;16352;2;0;0;0;0;0;7;0;13469;0;0;0;0;8;0;13268;0;0;0;0;9;0;6988;0;0;0;0
29.10.18;20:15:00;1;578;14232;0;2;0;10014;0;0;0;0;3;0;6285;0;0;0;0;4;0;8726;0;0;0;0;5;0;21566;2;0;0;0;0;0;6;0;16352;2;0;0;0;0;0;7;0;13469;0;0;0;0;8;0;13268;0;0;0;0;9;0;6988;0;0;0;0
29.10.18;20:10:00;1;1310;14184;0;2;0;10014;0;0;0;0;3;0;6285;0;0;0;0;4;0;8726;0;0;0;0;5;0;21566;2;0;0;0;0;0;6;0;16352;2;0;0;0;0;0;7;0;13469;0;0;0;0;8;0;13268;0;0;0;0;9;0;6988;0;0;0;0
29.10.18;20:05:00;1;2575;14054;0;2;0;10014;0;0;0;0;3;0;6285;0;0;0;0;4;0;8726;0;0;0;0;5;0;21566;2;0;0;0;0;0;6;0;16352;2;0;0;0;0;0;7;0;13469;0;0;0;0;8;0;13268;0;0;0;0;9;0;6988;0;0;0;0
29.10.18;20:00:00;1;2590;13840;0;2;0;10014;0;0;0;0;3;0;6285;0;0;0;0;4;0;8726;0;0;0;0;5;0;21566;2;0;0;0;0;0;6;0;16352;2;0;0;0;0;0;7;0;13469;0;0;0;0;8;0;13268;0;0;0;0;9;0;6988;0;0;0;0
29.10.18;19:55:00;1;2074;13624;0;2;0;10014;0;0;0;0;3;0;6285;0;0;0;0;4;0;8726;0;0;0;0;5;0;21566;2;0;0;0;0;0;6;0;16352;2;0;0;0;0;0;7;0;13469;0;0;0;0;8;0;13268;0;0;0;0;9;0;6988;0;0;0;0
29.10.18;19:50:00;1;1926;13497;0;2;0;10014;0;0;0;0;3;0;6285;0;0;0;0;4;0;8726;0;0;0;0;5;0;21566;2;0;0;0;0;0;6;0;16352;2;0;0;0;0;0;7;0;13469;0;0;0;0;8;0;13268;0;0;0;0;9;0;6988;0;0;0;0
29.10.18;19:45:00;1;692;13331;0;2;0;10014;0;0;0;0;3;0;6285;0;0;0;0;4;0;8726;0;0;0;0;5;0;21566;2;0;0;0;0;0;6;0;16352;2;0;0;0;0;0;7;0;13469;0;0;0;0;8;0;13268;0;0;0;0;9;0;6988;0;0;0;0
29.10.18;19:40:00;1;723;13273;0;2;0;10014;0;0;0;0;3;0;6285;0;0;0;0;4;0;8726;0;0;0;0;5;0;21566;2;0;0;0;0;0;6;0;16352;2;0;0;0;0;0;7;0;13469;0;0;0;0;8;0;13268;0;0;0;0;9;0;6988;0;0;0;0
29.10.18;19:35:00;1;609;13212;0;2;0;10014;0;0;0;0;3;0;6285;0;0;0;0;4;0;8726;0;0;0;0;5;0;21566;2;0;0;0;0;0;6;0;16352;2;0;0;0;0;0;7;0;13469;0;0;0;0;8;0;13268;0;0;0;0;9;0;6988;0;0;0;0
29.10.18;19:30:00;1;1764;13161;0;2;0;10014;0;0;0;0;3;0;6285;0;0;0;0;4;0;8726;0;0;0;0;5;0;21566;2;0;0;0;0;0;6;0;16352;2;0;0;0;0;0;7;0;13469;0;0;0;0;8;0;13268;0;0;0;0;9;0;6988;0;0;0;0
29.10.18;19:25:00;1;1932;12996;0;2;0;10014;0;0;0;0;3;0;6285;0;0;0;0;4;0;8726;0;0;0;0;5;0;21566;2;0;0;0;0;0;6;0;16352;2;0;0;0;0;0;7;0;13469;0;0;0;0;8;0;13268;0;0;0;0;9;0;6988;0;0;0;0
29.10.18;19:20:00;1;823;12879;0;2;0;10014;0;0;0;0;3;0;6285;0;0;0;0;4;0;8726;0;0;0;0;5;0;21566;2;0;0;0;0;0;6;0;16352;2;0;0;0;0;0;7;0;13469;0;0;0;0;8;0;13268;0;0;0;0;9;0;6988;0;0;0;0
29.10.18;19:15:00;1;2513;12782;0;2;0;10014;0;0;0;0;3;0;6285;0;0;0;0;4;0;8726;0;0;0;0;5;0;21566;2;0;0;0;0;0;6;0;16352;2;0;0;0;0;0;7;0;13469;0;0;0;0;8;0;13268;0;0;0;0;9;0;6988;0;0;0;0
29.10.18;19:10:00;1;1086;12572;0;2;0;10014;0;0;0;0;3;0;6285;0;0;0;0;4;0;8726;0;0;0;0;5;0;21566;2;0;0;0;0;0;6;0;16352;2;0;0;0;0;0;7;0;13469;0;0;0;0;8;0;13268;0;0;0;0;9;0;6988;0;0;0;0
29.10.18;19:05:00;1;752;12499;0;2;0;10014;0;0;0;0;3;0;6285;0;0;0;0;4;0;8726;0;0;0;0;5;0;21566;2;0;0;0;0;0;6;0;16352;2;0;0;0;0;0;7;0;13469;0;0;0;0;8;0;13268;0;0;0;0;9;0;6988;0;0;0;0
29.10.18;19:00:00;1;2519;12320;0;2;0;10014;0;0;0;0;3;0;6285;0;0;0;0;4;0;8726;0;0;0;0;5;0;21566;2;0;0;0;0;0;6;0;16352;2;0;0;0;0;0;7;0;13469;0;0;0;0;8;0;13268;0;0;0;0;9;0;6988;0;0;0;0
29.10.18;18:55:00;1;1437;12109;0;2;0;10014;0;0;0;0;3;0;6285;0;0;0;0;4;0;8726;0;0;0;0;5;0;21566;2;0;0;0;0;0;6;0;16352;2;0;0;0;0;0;7;0;13469;0;0;0;0;8;0;13268;0;0;0;0;9;0;6988;0;0;0;0
29.10.18;18:50:00;1;619;12005;0;2;0;10014;0;0;0;0;3;0;6285;0;0;0;0;4;0;8726;0;0;0;0;5;0;21566;2;0;0;0;0;0;6;0;16352;2;0;0;0;0;0;7;0;13469;0;0;0;0;8;0;13268;0;0;0;0;9;0;6988;0;0;0;0
29.10.18;18:45:00;1;662;11949;0;2;0;10014;0;0;0;0;3;0;6285;0;0;0;0;4;0;8726;0;0;0;0;5;0;21566;2;0;0;0;0;0;6;0;16352;2;0;0;0;0;0;7;0;13469;0;0;0;0;8;0;13268;0;0;0;0;9;0;6988;0;0;0;0
29.10.18;18:40:00;1;642;11891;0;2;0;10014;0;0;0;0;3;0;6285;0;0;0;0;4;0;8726;0;0;0;0;5;0;21566;2;0;0;0;0;0;6;0;16352;2;0;0;0;0;0;7;0;13469;0;0;0;0;8;0;13268;0;0;0;0;9;0;6988;0;0;0;0
29.10.18;18:35:00;1;600;11838;0;2;0;10014;0;0;0;0;3;0;6285;0;0;0;0;4;0;8726;0;0;0;0;5;0;21566;2;0;0;0;0;0;6;0;16352;2;0;0;0;0;0;7;0;13469;0;0;0;0;8;0;13268;0;0;0;0;9;0;6988;0;0;0;0
29.10.18;18:30:00;1;594;11788;0;2;0;10014;0;0;0;0;3;0;6285;0;0;0;0;4;0;8726;0;0;0;0;5;0;21566;2;0;0;0;0;0;6;0;16352;2;0;0;0;0;0;7;0;13469;0;0;0;0;8;0;13268;0;0;0;0;9;0;6988;0;0;0;0
29.10.18;18:25:00;1;574;11740;0;2;0;10014;0;0;0;0;3;0;6285;0;0;0;0;4;0;8726;0;0;0;0;5;0;21566;2;0;0;0;0;0;6;0;16352;2;0;0;0;0;0;7;0;13469;0;0;0;0;8;0;13268;0;0;0;0;9;0;6988;0;0;0;0
29.10.18;18:20:00;1;696;11689;0;2;0;10014;0;0;0;0;3;0;6285;0;0;0;0;4;0;8726;0;0;0;0;5;0;21566;2;0;0;0;0;0;6;0;16352;2;0;0;0;0;0;7;0;13469;0;0;0;0;8;0;13268;0;0;0;0;9;0;6988;0;0;0;0
29.10.18;18:15:00;1;658;11634;0;2;0;10014;0;0;0;0;3;0;6285;0;0;0;0;4;0;8726;0;0;0;0;5;0;21566;2;0;0;0;0;0;6;0;16352;2;0;0;0;0;0;7;0;13469;0;0;0;0;8;0;13268;0;0;0;0;9;0;6988;0;0;0;0
29.10.18;18:10:00;1;652;11579;0;2;0;10014;0;0;0;0;3;0;6285;0;0;0;0;4;0;8726;0;0;0;0;5;0;21566;2;0;0;0;0;0;6;0;16352;2;0;0;0;0;0;7;0;13469;0;0;0;0;8;0;13268;0;0;0;0;9;0;6988;0;0;0;0
29.10.18;18:05:00;1;781;11523;0;2;0;10014;0;0;0;0;3;0;6285;0;0;0;0;4;0;8726;0;0;0;0;5;0;21566;2;0;0;0;0;0;6;0;16352;2;0;0;0;0;0;7;0;13469;0;0;0;0;8;0;13268;0;0;0;0;9;0;6988;0;0;0;0
29.10.18;18:00:00;1;767;11463;0;2;0;10014;0;0;0;0;3;0;6285;0;0;0;0;4;0;8726;0;0;0;0;5;0;21566;2;0;0;0;0;0;6;0;16352;2;0;0;0;0;0;7;0;13469;0;0;0;0;8;0;13268;0;0;0;0;9;0;6988;0;0;0;0
29.10.18;17:55:00;1;1027;11402;0;2;0;10014;0;0;0;0;3;0;6285;0;0;0;0;4;0;8726;0;0;0;0;5;0;21566;2;0;0;0;0;0;6;0;16352;2;0;0;0;0;0;7;0;13469;0;0;0;0;8;0;13268;0;0;0;0;9;0;6988;0;0;0;0
29.10.18;17:50:00;1;2795;11301;0;2;0;10014;0;0;0;0;3;0;6285;0;0;0;0;4;0;8726;0;0;0;0;5;0;21566;2;0;0;0;0;0;6;0;16352;2;0;0;0;0;0;7;0;13469;0;0;0;0;8;0;13268;0;0;0;0;9;0;6988;0;0;0;0
29.10.18;17:45:00;1;1827;11058;0;2;0;10014;0;0;0;0;3;0;6285;0;0;0;0;4;0;8726;0;0;0;0;5;0;21566;2;0;0;0;0;0;6;0;16352;2;0;0;0;0;0;7;0;13469;0;0;0;0;8;0;13268;0;0;0;0;9;0;6988;0;0;0;0
29.10.18;17:40:00;1;1611;10948;0;2;0;10014;0;0;0;0;3;0;6285;0;0;0;0;4;0;8726;0;0;0;0;5;0;21566;2;0;0;0;0;0;6;0;16352;2;0;0;0;0;0;7;0;13469;0;0;0;0;8;0;13268;0;0;0;0;9;0;6988;0;0;0;0
29.10.18;17:35:00;1;1743;10784;0;2;0;10014;0;0;0;0;3;0;6285;0;0;0;0;4;0;8726;0;0;0;0;5;0;21566;2;0;0;0;0;0;6;0;16352;2;0;0;0;0;0;7;0;13469;0;0;0;0;8;0;13268;0;0;0;0;9;0;6988;0;0;0;0
29.10.18;17:30:00;1;2342;10632;0;2;0;10014;0;0;0;0;3;0;6285;0;0;0;0;4;0;8726;0;0;0;0;5;0;21566;2;0;0;0;0;0;6;0;16352;2;0;0;0;0;0;7;0;13469;0;0;0;0;8;0;13268;0;0;0;0;9;0;6988;0;0;0;0
29.10.18;17:25:00;1;2251;10458;0;2;0;10014;0;0;0;0;3;0;6285;0;0;0;0;4;0;8726;0;0;0;0;5;0;21566;2;0;0;0;0;0;6;0;16352;2;0;0;0;0;0;7;0;13469;0;0;0;0;8;0;13268;0;0;0;0;9;0;6988;0;0;0;0
29.10.18;17:20:00;1;2801;10273;0;2;0;10014;0;0;0;0;3;0;6285;0;0;0;0;4;0;8726;0;0;0;0;5;0;21566;2;0;0;0;0;0;6;0;16352;2;0;0;0;0;0;7;0;13469;0;0;0;0;8;0;13268;0;0;0;0;9;0;6988;0;0;0;0
29.10.18;17:15:00;1;3326;10029;0;2;0;10014;0;0;0;0;3;0;6285;0;0;0;0;4;0;8726;0;0;0;0;5;0;21566;2;0;0;0;0;0;6;0;16352;2;0;0;0;0;0;7;0;13469;0;0;0;0;8;0;13268;0;0;0;0;9;0;6988;0;0;0;0
29.10.18;17:10:00;1;3291;9756;0;2;0;10014;0;0;73;5;3;0;6285;0;0;240;18;4;0;8726;0;0;9;2;5;0;21566;2;0;0;0;0;0;6;0;16352;2;0;0;0;0;0;7;0;13469;0;0;0;0;8;0;13268;0;0;0;0;9;0;6988;0;0;0;0
29.10.18;17:05:00;1;1445;9506;0;2;0;10014;6;0;281;19;3;0;6285;6;0;321;21;4;0;8726;2;0;81;20;5;0;21566;2;0;0;0;0;0;6;0;16352;2;0;0;0;0;0;7;0;13469;0;0;0;0;8;0;13268;0;0;0;0;9;0;6988;0;0;0;0
29.10.18;17:00:00;1;1133;9396;0;2;0;10014;6;0;309;19;3;0;6285;6;0;376;21;4;0;8726;1;0;112;20;5;0;21566;2;0;9;228;227;25;6;0;16352;1;4;0;160;89;15;7;0;13469;0;0;41;3;8;0;13268;0;0;42;3;9;0;6988;0;0;131;8
29.10.18;16:55:00;1;1102;9309;0;2;0;10014;6;0;342;19;3;0;6285;6;2;413;21;4;0;8726;1;0;153;21;5;0;21566;23;0;0;361;360;30;6;0;16352;23;2;6;493;180;29;7;0;13469;6;0;300;22;8;0;13268;6;0;303;21;9;0;6988;6;0;318;17
29.10.18;16:50:00;1;1210;9210;0;2;0;10014;6;0;371;19;3;1;6285;6;2;451;21;4;0;8726;1;0;198;21;5;5;21566;1;0;0;386;602;30;6;0;16352;23;13;5;361;381;29;7;0;13469;6;0;381;22;8;0;13268;6;0;384;22;9;0;6988;6;0;401;18
29.10.18;16:45:00;1;1036;9114;0;2;0;10014;6;0;391;20;3;2;6285;6;5;474;21;4;0;8726;1;0;218;22;5;25;21565;1;0;6;395;629;31;6;0;16352;23;4;2;417;554;30;7;0;13469;6;2;419;23;8;0;13268;6;2;420;22;9;1;6988;6;2;453;18
29.10.18;16:40:00;1;913;9027;0;2;18;10014;6;34;382;20;3;1;6285;6;6;499;21;4;2;8726;3;2;199;22;5;93;21563;4;14;25;375;599;32;6;43;16352;1;22;27;444;409;31;7;1;13469;6;7;452;23;8;1;13268;6;5;452;22;9;0;6988;6;3;496;18
29.10.18;16:35:00;1;508;8957;0;2;65;10013;4;100;361;20;3;0;6285;6;0;538;21;4;17;8726;3;17;198;22;5;141;21555;4;38;41;375;599;32;6;84;16347;4;45;45;420;383;31;7;33;13469;6;64;404;23;8;32;13268;6;58;407;23;9;0;6988;6;0;539;19
29.10.18;16:30:00;1;660;8915;0;2;143;10007;4;182;370;21;3;74;6285;4;116;480;22;4;83;8725;3;86;204;22;5;218;21543;4;85;80;375;599;32;6;138;16340;4;74;76;419;383;31;7;119;13466;4;147;424;24;8;86;13266;4;124;442;23;9;15;6988;4;23;517;19
29.10.18;16:25:00;1;1299;8843;0;2;378;9996;4;426;397;21;3;182;6278;4;228;542;22;4;283;8718;5;295;231;22;5;378;21524;4;177;145;375;599;32;6;238;16328;4;124;126;420;384;31;7;330;13456;4;368;449;24;8;183;13259;4;226;430;23;9;75;6987;4;104;461;19
29.10.18;16:20:00;1;507;8743;0;2;262;9965;4;306;371;21;3;152;6264;4;195;481;22;4;183;8695;5;190;223;22;5;355;21492;4;167;142;375;599;32;6;215;16308;4;110;103;420;384;31;7;256;13430;4;301;451;24;8;199;13244;4;237;430;23;9;87;6980;4;118;473;20
29.10.18;16:15:00;1;522;8701;0;2;275;9943;4;317;374;22;3;163;6251;4;205;472;22;4;189;8680;5;197;223;23;5;398;21462;4;185;164;376;599;32;6;248;16290;4;118;121;427;405;31;7;209;13408;4;251;352;19;8;238;13227;4;283;441;23;9;106;6973;4;141;491;20
29.10.18;16:10:00;1;350;8658;0;2;555;9920;4;609;383;22;3;301;6237;4;347;427;23;4;368;8664;5;383;231;23;5;666;21428;4;324;279;395;611;32;6;499;16268;4;250;265;562;541;31;7;619;13386;4;664;463;24;8;401;13207;4;448;477;24;9;144;6964;4;181;523;20
29.10.18;16:05:00;1;399;8631;0;2;932;9875;4;995;390;23;3;447;6213;4;503;501;23;4;585;8634;5;609;241;23;5;1082;21370;4;542;461;414;632;32;6;833;16226;4;447;455;576;553;31;7;1155;13336;4;1229;467;24;8;696;13175;4;756;497;24;9;196;6952;4;233;537;20
29.10.18;16:00:00;1;349;8604;0;2;676;9800;4;735;393;23;3;413;6176;4;468;502;23;4;521;8586;5;542;234;23;5;1067;21280;4;535;451;405;646;32;6;806;16157;4;372;373;570;547;31;7;758;13243;4;823;457;24;8;688;13118;4;746;473;24;9;302;6936;4;346;525;21
29.10.18;15:55:00;1;274;8578;0;2;722;9743;4;782;385;23;3;429;6141;4;481;484;23;4;539;8543;5;561;235;23;5;1074;21191;4;533;457;406;630;32;6;817;16089;4;413;409;568;543;31;7;799;13180;4;853;455;24;8;747;13061;4;805;465;24;9;321;6911;4;369;518;21
29.10.18;15:50:00;1;333;8551;0;2;1306;9683;4;1382;389;23;3;717;6106;4;774;443;23;4;760;8498;5;791;230;23;5;1649;21099;4;857;714;418;665;32;6;1259;16019;4;631;626;583;559;31;7;1662;13114;4;1740;478;24;8;1478;12998;4;1552;457;24;9;325;6884;4;365;415;21
29.10.18;15:45:00;1;231;8532;0;2;1033;9575;4;1102;394;23;3;560;6047;4;612;428;23;4;648;8435;5;675;245;23;5;1414;20961;4;714;609;417;667;32;6;1080;15914;4;545;539;576;553;31;7;1262;12978;4;1343;467;24;8;1188;12877;4;1254;468;24;9;356;6857;4;395;369;21
29.10.18;15:40:00;1;220;8512;0;2;1505;9489;4;1588;391;23;3;773;6000;4;835;458;23;4;774;8381;5;807;254;23;5;1964;20842;4;1022;856;419;677;32;6;1486;15823;4;763;746;590;565;31;7;1851;12869;4;1946;476;24;8;1780;12776;4;1870;480;24;9;612;6827;4;656;377;22
29.10.18;15:35:00;1;2295;8489;0;2;1082;9365;4;1153;395;23;3;581;5936;4;643;535;23;4;668;8317;5;696;249;23;5;1603;20676;4;831;692;411;663;32;6;1241;15698;4;623;626;579;563;31;7;1499;12716;4;1576;474;24;8;1470;12628;4;1549;467;24;9;555;6777;4;603;445;22
29.10.18;15:30:00;1;2306;8298;0;2;789;9271;4;850;402;23;3;479;5886;4;539;525;23;4;567;8260;5;590;238;23;5;1264;20547;4;634;541;412;653;32;6;968;15597;4;497;496;577;552;31;7;960;12586;4;1029;467;24;8;938;12501;4;1002;461;24;9;396;6729;4;442;492;22
29.10.18;15:25:00;1;2788;8106;0;2;836;9205;4;899;393;23;3;491;5846;4;552;526;23;4;579;8213;5;604;245;23;5;1353;20442;4;684;577;414;656;32;6;1029;15517;4;518;528;579;551;31;7;1057;12506;4;1121;465;25;8;1025;12423;4;1091;462;24;9;468;6696;4;514;475;22
29.10.18;15:20:00;1;3132;7866;0;2;934;9136;4;997;385;23;3;490;5805;4;547;499;23;4;575;8165;5;598;247;23;5;1475;20328;4;760;627;412;673;32;6;1132;15430;4;573;574;582;553;31;7;1255;12419;4;1330;471;25;8;1229;12338;4;1303;473;24;9;587;6658;4;643;483;22
29.10.18;15:15:00;1;2465;7605;0;2;760;9058;4;821;383;23;3;427;5764;4;483;523;23;4;489;8117;5;509;242;23;5;1250;20205;4;628;529;411;645;32;6;948;15336;4;478;482;575;550;31;7;950;12314;4;1016;467;25;8;937;12236;4;998;459;24;9;456;6609;4;506;520;22
29.10.18;15:10:00;1;2308;7403;0;2;995;8994;4;1062;384;24;3;488;5728;4;549;550;24;4;581;8075;5;605;245;23;5;1600;20101;4;826;692;412;671;32;6;1237;15257;4;643;636;577;551;31;7;1326;12231;4;1395;480;25;8;1284;12154;4;1353;465;24;9;655;6569;4;717;524;23
29.10.18;15:05:00;1;654;7211;0;2;712;8912;4;771;389;24;3;396;5688;4;450;471;24;4;494;8027;5;515;233;23;5;1280;19966;4;654;544;403;640;32;6;978;15154;4;490;493;563;544;31;7;974;12121;4;1037;456;25;8;950;12047;4;1014;460;24;9;511;6514;4;562;501;23
29.10.18;15:00:00;1;231;7170;0;2;1733;8849;4;1825;381;25;3;956;5654;4;1020;416;24;4;860;7985;5;896;249;24;5;2555;19847;4;1348;1125;419;675;32;6;1886;15064;4;974;965;582;553;31;7;2165;12039;4;2272;468;25;8;2126;11967;4;2234;464;24;9;1170;6472;4;1248;511;24
29.10.18;14:55:00;1;233;7150;0;2;2093;8705;4;2202;395;25;3;1118;5574;4;1188;425;24;4;1063;7913;5;1108;251;24;5;3140;19632;4;1689;1377;418;671;32;6;2327;14902;4;1200;1168;582;568;30;7;2521;11861;4;2647;468;24;8;2496;11792;4;2619;472;24;9;1378;6375;4;1464;524;24
29.10.18;14:50:00;1;282;7131;0;2;2223;8530;4;2337;401;24;3;1029;5481;4;1103;488;24;4;1216;7825;5;1267;250;23;5;3421;19367;4;1860;1513;421;687;31;6;2619;14701;4;1366;1332;593;567;30;7;2872;11646;4;3013;479;24;8;2830;11580;4;2963;477;23;9;1542;6258;4;1634;522;23
29.10.18;14:45:00;1;370;7107;0;2;1741;8345;4;1836;400;23;3;866;5393;4;943;571;23;4;1154;7723;5;1202;245;23;5;2924;19082;4;1574;1279;419;683;31;6;2257;14483;4;1129;1114;587;578;30;7;2375;11406;4;2479;471;24;8;2343;11342;4;2454;470;23;9;1278;6128;4;1362;523;22
29.10.18;14:40:00;1;1470;7075;0;2;1596;8195;4;1685;405;22;3;853;5321;4;926;551;23;4;1166;7626;5;1214;248;23;5;2825;18841;4;1488;1239;422;683;31;6;2155;14297;4;1116;1088;596;572;30;7;2069;11201;4;2164;478;24;8;2042;11141;4;2141;476;23;9;1113;6019;4;1189;531;22
29.10.18;14:35:00;1;1707;6937;0;2;1320;8062;4;1398;403;21;3;708;5249;4;770;477;23;4;971;7529;5;1012;250;22;5;2425;18608;4;1286;1054;427;679;31;6;1867;14119;4;959;944;593;570;30;7;1741;11027;4;1834;479;24;8;1713;10970;4;1801;475;23;9;926;5926;4;997;528;21
29.10.18;14:30:00;1;1850;6797;0;2;660;7952;4;716;393;21;3;406;5190;4;456;490;22;4;544;7447;5;567;238;22;5;1389;18411;4;707;599;410;667;31;6;1087;13967;4;552;555;572;555;30;7;985;10880;4;1044;475;24;8;981;10825;4;1041;464;23;9;534;5849;4;591;521;21
29.10.18;14:25:00;1;2405;6649;0;2;399;7895;4;449;390;21;3;247;5156;4;295;496;22;4;324;7401;5;337;227;23;5;846;18300;4;419;362;400;630;31;6;651;13881;4;336;336;564;555;30;7;517;10796;4;564;462;24;8;520;10742;4;560;456;23;9;270;5802;4;314;510;21
29.10.18;14:20:00;1;1172;6492;0;2;411;7862;4;461;387;21;3;251;5135;4;297;486;23;4;331;7374;5;345;230;23;5;854;18230;4;419;358;409;631;31;6;645;13828;4;313;321;566;545;30;7;458;10753;4;502;460;24;8;443;10698;4;485;438;23;9;231;5780;4;272;503;21
29.10.18;14:15:00;1;2649;6354;0;2;486;7827;4;536;389;21;3;301;5114;4;350;496;23;4;408;7346;5;425;235;23;5;1038;18158;4;526;443;412;653;31;6;789;13773;4;388;399;576;559;30;7;535;10714;4;587;460;24;8;531;10661;4;577;454;24;9;277;5760;4;321;515;21
29.10.18;14:10:00;1;814;6132;0;2;469;7787;4;519;389;21;3;294;5089;4;343;498;23;4;405;7312;5;422;234;23;5;1048;18072;4;531;446;409;639;31;6;805;13707;4;418;425;572;552;30;7;553;10670;4;601;468;24;8;463;10617;4;502;380;20;9;293;5737;4;333;517;21